Flag for U.S.A. Weather past 2 weeks in Des Moines, Iowa, U.S.A.

Now
72 °F

Passing clouds.


Feels Like: 76 °F
Forecast: 50 / 73 °F
Wind: No wind

Location: Des Moines International Airport

Current Time: Sep 17, 2014 at 12:17:49 PM

Latest Report: Sep 17, 2014 at 11:54 AM


Visibility: 10 mi

Pressure: 29.95 "Hg

Humidity: 64%

Dew point: 59 °F

Location of Des MoinesLocation

Historic Weather in Des Moines — Graph

°F

Des Moines temperature yesterday

Maximum temperature yesterday: 67 °F (at 3:54 PM)
Minimum temperature yesterday: 44 °F (at 6:54 AM)
Average temperature yesterday: 57 °F

Past Weeks' High & Low Weather Summary

 TemperatureHumidityPressure
High93 °F (Sep 4, 2:54 PM)93% (Sep 9, 11:54 PM)30.44 "Hg (Sep 9, 11:54 PM)
Low40 °F (Sep 13, 6:54 AM)39% (Sep 7, 2:54 PM)29.51 "Hg (Sep 10, 1:54 AM)
Average63 °F73%30.06 "Hg
* Reported Sep 2 10:54 AM — Sep 17 10:54 AM, Des Moines, Weather by CustomWeather, © 2014

Note: Actual official high and low records may vary slightly from our data, if they occured in-between our weather recording intervals... More about our weather records

Advertising

Des Moines weather history for previous 24 hours

 ConditionsComfort  
Time TempWeatherWind HumidityBarometerVisibility
10:54 AM
Sep 17
67 °FScattered clouds.3 mph71%29.96 "Hg10 mi
9:54 AM62 °FPartly sunny.5 mph78%29.96 "Hg10 mi
8:54 AM60 °FOvercast.5 mph75%29.96 "Hg10 mi
7:54 AM58 °FMostly cloudy.7 mph78%29.96 "Hg10 mi
6:54 AM58 °FOvercast.5 mph75%29.95 "Hg10 mi
5:54 AM58 °FOvercast.7 mph75%29.96 "Hg10 mi
4:54 AM56 °FOvercast.7 mph81%29.97 "Hg10 mi
3:54 AM57 °FOvercast.5 mph74%29.99 "Hg10 mi
2:54 AM55 °FMostly cloudy.6 mph83%30.01 "Hg10 mi
1:54 AM56 °FPartly cloudy.7 mph77%30.01 "Hg10 mi
12:54 AM55 °FPassing clouds.6 mph80%30.03 "Hg10 mi
11:54 PM
Sep 16
56 °FPassing clouds.7 mph77%30.05 "Hg10 mi
10:54 PM56 °FPassing clouds.6 mph77%30.06 "Hg10 mi
9:54 PM59 °FPassing clouds.7 mph69%30.06 "Hg10 mi
8:54 PM60 °FClear.6 mph67%30.06 "Hg10 mi
7:54 PM62 °FPassing clouds.7 mph62%30.05 "Hg10 mi
6:54 PM65 °FSunny.3 mph54%30.06 "Hg10 mi
5:54 PM67 °FSunny.6 mph49%30.07 "Hg10 mi
4:54 PM67 °FSunny.7 mph49%30.08 "Hg10 mi
3:54 PM67 °FSunny.8 mph49%30.10 "Hg10 mi
2:54 PM66 °FSunny.9 mph49%30.13 "Hg10 mi
1:54 PM65 °FPassing clouds.5 mph49%30.16 "Hg10 mi
12:54 PM65 °FPassing clouds.7 mph49%30.19 "Hg10 mi
Weather by CustomWeather, © 2014

See weather overviewHow to use our weather pages